SCP
0 0 -0 -0 -0 -0 0 0 0 0 0 0 0 0 0 0 0 0 0 0 0 0 -0 -0 -0 -0 -0 -0 -0 -0 -0 -0 -0 -0 -0 -0 -0 -0 -0 -0 -0 -0 -0 -0 -0 -0 -0 0 0
0 0 -0 -0 0 0 0 0 0 0 -0 0 0 0 -0 -0 0 0 -0 0 0 -0 -0 -0 -0 -0 -0 -0 -0 -0 -0 -0 -0 -0 -0 -0 -0 -0 -0 -0 -0 -0 -0 -0 -0 -0 -0 -0 0
-0 -0 -0 0 0 0 0 0 0 -0 -0 0 0 -0 0 0 -0 -0 0 0 0 -0 -0 -0 -0 -0 -0 -0 -0 -0 -0 -0 -0 -0 -0 -0 -0 -0 -0 0 0 0 0 0 -0 -0 0 0 0
-0 0 -0 0 0 0 0 0 0 -0 -0 -0 0 0 -0 -0 0 -0 -0 0 0 -0 -0 -0 -0 -0 -0 -0 -0 -0 -0 -0 -0 -0 -0 -0 -0 -0 -0 0 0 0 0 0 0 0 0 0 0
-0 -0 0 0 0 0 0 0 0 0 0 -0 -0 0 0 0 -0 -0 0 0 0 0 0 -0 -0 -0 -0 -0 -0 -0 -0 -0 -0 -0 0 -0 -0 -0 0 0 0 0 0 0 0 0 0 0 0
0 0 0 0 0 0 0 0 0 0 0 0 0 0 0 0 0 0 0 0 0 0 0 0 0 0 0 -0 -0 -0 -0 -0 0 0 0 -0 0 0 0 0 0 0 0 0 0 0 0 0 0
0 0 0 0 0 0 0 0 0 0 0 0 0 0 0 0 0 0 0 0 0 0 0 0 0 0 0 0 0 -0 0 0 0 0 0 0 0 0 0 0 0 0 0 0 0 0 0 0 0
0 0 0 0 0 0 0 0 0 0 0 0 0 0 0 0 0 0 0 0 0 0 0 0 0 0 0 0 0 0 0 0 0 0 0 0 0 0 0 0 0 0 0 0 0 0 0 0 0
0 0 0 0 0 0 0 0 0 0 0 0 0 0 0 0 0 0 0 0 0 0 0 0 0 0 0 0 0 0 0 0 0 0 0 0 0 0 0 0 0 0 0 0 0 0 0 0 0
0 0 0 0 0 0 0 0 0 0 0 0 0 0 0 0 0 0 0 0 0 0 0 0 0 0 0 0 0 0 0 0 0 0 0 0 0 0 0 0 0 0 0 0 0 0 0 0 0
0 0 0 0 0 0 0 0 0 0 0 0 0 0 0 0 0 0 0 0 0 0 0 0 0 0 0 0 0 0 0 0 0 0 0 0 0 0 0 0 0 0 0 0 0 0 0 0 0
0 0 0 0 0 0 0 0 0 0 0 0 0 0 0 0 0 0 0 0 0 0 0 0 0 0 0 0 0 0 0 0 0 0 0 0 0 0 0 0 0 0 0 0 0 0 0 0 0
0 0 0 0 0 0 0 0 0 0 0 0 0 0 0 0 0 0 0 0 0 0 0 0 0 0 0 0 0 0 0 0 0 0 0 0 0 0 0 0 0 0 0 0 0 0 0 0 0
0 0 0 0 0 0 0 0 0 0 0 0 0 0 0 0 0 0 0 0 0 0 0 0 0 0 0 0 0 0 0 0 0 0 0 0 0 0 0 0 0 0 0 0 0 0 0 0 0
0 0 0 0 0 0 0 0 0 0 0 0 0 0 0 0 0 0 0 0 0 0 0 0 0 0 0 0 0 0 0 0 0 0 0 0 0 0 0 0 0 0 0 0 0 0 0 0 0
0 0 0 0 0 0 0 0 0 0 0 0 0 0 0 0 0 0 0 0 0 0 0 0 0 0 0 0 0 0 0 0 0 0 0 0 0 0 0 0 0 0 0 0 0 0 0 0 0
0 0 0 0 0 0 0 0 0 0 0 0 0 0 0 0 0 0 0 0 0 0 0 0 0 0 0 0 0 0 0 0 0 0 0 0 0 0 0 0 0 0 0 0 0 0 0 0 0
0 0 0 0 0 0 0 0 0 0 0 0 0 0 0 0 0 0 0 0 0 0 0 0 0 0 0 0 0 0 0 0 0 0 0 0 0 0 0 0 0 0 0 0 0 0 0 0 0
0 0 0 0 0 0 0 0 0 0 0 0 0 0 0 0 0 0 0 0 0 0 0 0 0 0 0 0 0 0 0 0 0 0 0 0 0 0 0 0 0 0 0 0 0 0 0 0 0
0 0 0 0 0 0 0 0 0 0 0 0 0 0 0 0 0 0 0 0 0 0 0 0 0 0 0 0 0 0 0 0 0 0 0 0 0 0 0 0 0 0 0 0 0 0 0 0 0
0 0 0 0 0 0 0 0 0 0 0 0 0 0 0 0 0 0 0 0 0 0 0 0 0 0 0 0 0 0 0 0 0 0 0 0 0 0 0 0 0 0 0 0 0 0 0 -0 -0
0 0 0 0 0 0 0 0 0 0 0 0 0 0 0 0 0 0 0 0 0 0 0 0 0 0 0 0 0 0 0 0 0 0 0 0 0 0 0 0 0 0 0 0 0 0 0 0 -0
0 0 0 0 0 0 0 0 0 0 0 0 0 0 0 0 0 0 0 0 0 0 0 0 0 0 0 0 0 0 0 0 -0 0 0 0 0 0 0 0 0 0 0 0 0 0 0 0 0
0 0 0 0 0 0 0 0 0 0 0 0 0 0 0 0 0 0 0 0 0 0 0 0 0 0 0 0 0 0 -0 -0 0 0 0 0 0 0 0 0 0 0 0 0 0 0 0 0 0
0 0 0 0 0 0 0 0 0 0 0 0 0 0 0 0 0 0 0 0 0 0 0 0 0 0 0 0 0 0 0 0 0 0 0 0 0 0 0 0 0 0 0 0 0 0 0 0 0
0 0 0 0 0 0 0 0 0 0 0 0 0 0 0 0 0 0 0 0 0 0 0 0 0 0 0 0 0 0 0 0 0 -0 -0 0 0 0 0 0 0 0 0 0 0 0 0 0 0
0 0 0 0 0 0 0 0 0 0 0 0 0 0 0 0 0 0 0 0 0 0 0 0 0 0 0 -0 0 0 0 0 0 0 0 0 0 0 0 0 0 0 0 0 0 0 0 0 0
0 0 0 0 0 0 0 0 0 0 0 0 0 0 0 0 0 0 0 0 0 0 0 0 0 0 0 0 0 0 0 0 0 0 0 0 0 0 0 0 0 0 0 0 0 0 0 0 0
0 0 0 0 0 0 0 0 0 0 0 0 0 0 0 0 0 0 0 0 0 0 0 0 0 0 0 0 0 0 0 0 0 0 0 0 0 0 0 0 0 0 0 0 0 0 0 0 0
0 0 0 0 0 0 0 0 0 0 0 0 0 0 0 0 0 0 0 0 0 0 0 0 0 0 0 0 0 0 0 0 0 0 0 0 0 0 0 0 0 0 0 0 0 0 0 0 0
Wind_Speed_500mb
8 6 2 3 7 8 2 2 3 3 1 1 3 3 3 3 6 4 8 3 5 16 29 34 32 31 29 27 26 23 20 15 12 9 9 8 7 5 6 9 9 8 7 6 8 10 10 9 8
7 4 4 6 8 7 5 5 4 4 1 1 4 4 3 1 1 3 7 2 5 14 25 30 29 28 28 27 25 23 20 15 12 11 8 5 3 2 8 11 12 7 7 6 7 9 10 10 7
5 4 2 8 6 7 6 6 5 3 1 1 4 2 3 2 4 4 5 3 4 11 19 26 29 27 26 24 23 22 19 16 13 9 9 4 3 2 8 10 15 11 9 8 10 11 12 12 10
7 2 10 8 5 4 3 5 4 6 1 4 3 4 1 1 3 3 6 7 5 9 15 25 27 27 26 24 21 19 18 16 13 8 6 7 8 10 10 23 21 16 12 9 9 11 12 12 10
4 6 8 7 3 3 6 6 5 2 2 4 3 1 2 5 2 3 7 10 9 7 10 20 26 25 23 27 23 20 19 17 13 9 9 10 10 10 10 18 19 17 13 8 10 12 12 11 10
6 6 8 4 5 5 7 4 2 0 2 1 3 5 6 9 10 4 4 6 7 7 7 12 22 26 25 23 26 24 22 19 15 11 10 12 13 9 11 16 17 19 12 9 10 10 10 9 7
10 7 9 8 4 6 5 4 6 3 4 3 3 4 4 12 7 4 3 4 6 4 6 9 14 22 28 28 25 26 24 21 17 16 16 17 16 13 13 15 14 20 13 11 12 11 10 9 6
6 11 6 5 5 5 1 3 4 2 1 6 5 5 2 15 18 11 9 9 9 7 8 10 13 18 25 30 28 25 26 24 21 20 19 21 18 17 15 12 13 16 18 15 12 10 11 9 6
4 8 3 7 11 4 3 8 3 6 6 3 5 9 14 18 9 8 10 9 11 10 9 11 13 17 21 28 30 29 25 26 25 20 19 22 21 19 18 12 13 15 17 18 17 13 10 9 7
7 7 11 9 8 5 3 2 9 3 9 4 2 16 16 18 10 8 13 13 15 17 19 17 19 20 20 24 27 28 28 29 31 29 27 24 22 19 16 15 15 16 18 20 19 17 12 11 12
5 8 7 5 11 7 2 7 3 3 2 6 11 24 6 3 5 7 10 13 18 22 25 28 28 25 25 21 22 28 30 28 29 28 27 24 21 19 18 19 21 22 21 22 24 23 20 15 14
1 5 7 3 5 2 5 5 6 10 1 6 17 5 8 7 6 5 4 5 9 14 18 29 34 33 28 22 19 17 22 25 28 27 25 23 24 23 19 22 23 23 25 28 29 27 23 20 19
4 4 7 11 17 19 17 16 9 14 7 11 14 9 9 10 10 9 12 15 19 21 24 27 32 37 30 23 18 11 9 15 19 20 19 20 21 24 21 23 22 23 25 24 27 32 25 23 21
5 7 19 19 22 15 10 1 8 8 13 13 7 10 10 12 14 12 9 12 16 20 24 23 29 38 33 25 18 11 8 10 11 19 25 23 20 17 16 15 18 24 26 26 28 27 23 20 21
1 8 14 10 7 8 12 4 6 9 11 10 9 8 8 11 12 15 19 19 17 14 12 9 21 35 33 26 23 18 17 15 12 12 17 24 21 20 19 20 18 17 13 22 33 28 26 27 27
3 8 6 4 7 2 7 8 6 6 4 11 10 8 7 8 12 14 17 17 17 16 11 11 23 35 38 35 29 22 16 13 9 11 14 15 15 22 24 21 16 8 13 20 29 29 30 33 39
9 7 8 15 4 5 5 10 9 14 10 16 13 12 11 12 13 17 20 21 22 23 23 24 30 35 37 34 28 24 18 15 10 4 7 9 5 3 8 5 6 12 18 21 28 35 33 39 40
13 9 8 10 3 5 6 16 11 20 19 20 18 17 16 17 20 21 23 25 29 32 35 39 40 42 36 32 28 22 16 16 12 6 6 8 10 11 12 17 20 24 34 38 38 34 37 39 40
11 9 11 7 4 4 12 11 6 14 21 18 18 21 24 25 26 25 27 29 34 39 44 49 46 43 35 32 26 19 8 12 6 5 3 8 14 19 22 24 24 20 17 17 20 24 29 30 34
6 8 11 8 7 8 9 15 5 10 7 12 21 26 32 36 37 39 41 42 43 44 45 43 43 37 32 26 26 26 29 30 27 24 19 17 13 10 7 6 8 9 11 14 20 25 27 30 34
10 11 10 14 3 3 2 10 7 6 15 20 24 31 37 44 49 53 57 60 60 61 59 57 55 52 50 45 41 37 34 34 29 27 24 24 22 21 20 19 19 20 21 23 26 27 30 33 31
10 16 12 10 7 8 0 9 8 8 7 8 24 33 39 44 49 52 56 58 57 57 54 51 48 45 43 38 33 30 30 27 29 26 24 22 21 22 22 22 22 22 23 23 27 29 29 30 34
9 10 13 6 6 4 5 2 9 12 12 14 29 36 40 44 47 52 54 54 52 49 45 42 40 40 38 33 29 26 27 31 29 25 20 20 20 20 22 23 25 25 27 28 29 30 31 32 32
18 13 12 8 5 5 16 15 8 13 14 20 30 45 47 48 47 48 49 48 47 43 39 36 33 38 34 30 31 29 30 29 22 22 21 23 23 23 24 26 29 31 31 32 34 35 34 33 32
5 12 2 3 2 11 3 7 14 11 13 35 52 65 60 52 50 48 46 43 41 38 33 31 29 33 30 27 27 26 25 22 21 21 23 25 29 32 35 36 36 38 38 37 37 38 39 39 39
17 14 11 14 8 5 2 12 11 6 10 33 60 73 66 60 53 48 43 40 38 32 30 26 25 27 26 23 24 23 22 23 24 27 30 32 35 36 37 40 41 42 43 43 45 45 46 46 45
13 11 10 13 4 5 8 9 4 5 4 27 48 61 67 61 55 50 45 39 35 31 29 25 24 23 21 19 18 17 16 16 18 19 20 22 23 27 31 35 39 43 48 52 55 57 59 61 61
9 16 5 2 5 8 8 9 12 14 19 19 37 59 73 68 61 54 47 41 38 34 30 27 22 18 14 11 8 9 11 16 22 26 31 35 39 42 46 50 53 54 55 58 63 65 68 72 74
6 7 4 8 9 11 3 11 9 17 29 38 48 62 79 75 64 56 48 41 37 36 31 27 22 16 9 3 6 11 17 21 27 33 37 42 45 50 54 59 62 65 67 70 74 77 82 86 89
2 13 13 9 10 5 4 16 4 9 26 46 54 71 84 80 70 60 50 45 42 39 35 28 21 14 6 4 11 17 21 25 31 35 40 46 50 53 59 63 67 72 76 81 86 91 93 97 100
Wind_Direction_500mb
338 345 11 105 62 65 37 245 288 263 329 180 135 147 174 132 156 176 360 122 79 161 176 179 180 177 179 181 183 187 188 192 193 181 158 145 128 106 355 338 335 336 3 43 32 36 22 26 26
13 39 91 101 83 68 284 263 231 234 327 81 134 127 70 334 57 13 27 76 73 151 176 182 185 180 182 185 188 188 194 204 202 186 179 168 133 353 318 315 320 356 22 36 23 19 0 6 5
33 50 90 89 105 148 180 232 262 297 159 103 132 119 121 101 56 59 18 116 86 149 170 186 188 188 185 190 196 197 200 200 200 185 185 173 144 85 348 334 357 14 17 12 9 360 353 350 342
17 82 63 79 120 195 180 308 251 337 87 55 69 95 326 141 104 70 64 102 99 148 163 188 195 196 195 187 194 195 200 205 207 208 214 232 199 305 345 356 351 347 356 357 3 356 352 350 341
21 65 59 77 275 257 254 285 333 9 339 6 37 317 46 25 37 103 99 109 110 135 165 184 198 205 205 191 198 204 207 212 214 224 241 245 268 293 332 347 360 349 356 359 359 354 353 353 357
66 67 67 166 255 276 270 314 193 92 20 330 58 2 73 57 65 84 112 115 110 131 170 184 196 207 211 207 195 209 211 215 218 227 234 250 267 267 322 342 354 0 355 4 360 0 356 350 5
104 78 171 164 238 299 187 348 167 168 324 76 12 29 84 67 35 338 247 204 180 169 183 194 205 210 213 218 211 205 217 220 228 241 245 252 262 263 312 329 345 6 13 9 4 1 354 347 354
90 94 117 226 195 239 210 107 139 49 47 348 24 59 339 324 328 293 243 244 236 209 203 203 213 220 221 222 217 215 212 226 225 238 247 263 260 264 295 314 334 353 6 2 5 359 350 338 336
91 64 167 213 165 219 12 37 134 317 283 10 52 15 329 314 300 227 210 245 249 244 245 242 233 229 228 225 226 217 216 218 226 229 238 253 263 274 282 291 317 336 351 357 356 351 335 321 309
88 108 217 192 201 201 324 341 335 291 330 312 197 334 293 274 251 227 232 245 235 230 231 237 246 244 235 231 231 228 223 221 226 230 236 249 267 274 280 291 304 322 334 343 348 351 331 314 302
134 178 199 211 223 251 230 293 259 296 309 159 323 321 317 318 243 244 254 257 248 241 237 240 236 235 238 235 231 226 231 234 233 231 241 252 259 269 275 284 298 308 327 338 336 334 332 317 301
338 251 227 248 160 232 227 257 270 252 207 272 308 85 98 85 67 47 12 311 284 267 251 240 235 226 225 230 226 229 230 230 235 237 242 251 263 276 288 291 293 304 311 319 326 327 324 316 308
166 273 261 270 278 276 264 250 253 326 58 144 128 106 70 51 33 6 341 324 312 299 281 257 235 219 210 214 212 217 229 229 233 229 234 252 260 265 285 285 297 302 303 309 316 315 317 311 306
187 267 281 285 269 257 234 174 159 117 118 127 109 59 28 8 7 3 342 332 320 306 294 269 232 207 193 196 191 182 163 170 198 215 225 235 255 268 269 299 290 288 293 300 305 314 309 307 302
261 317 319 256 259 230 191 137 120 125 139 98 72 54 26 10 358 355 358 354 350 340 316 280 200 186 176 178 184 175 153 152 171 200 219 220 229 246 254 268 263 279 288 297 304 314 322 319 306
62 51 354 281 155 235 172 248 188 55 230 87 72 59 32 20 25 30 28 29 34 33 46 100 153 163 164 170 170 168 163 172 176 193 209 236 258 237 234 247 235 246 282 298 305 300 303 308 310
3 230 207 313 198 128 178 259 119 46 117 93 79 76 76 74 69 66 65 64 67 66 77 102 129 141 149 156 163 160 155 171 152 145 104 119 176 343 344 274 312 304 308 314 311 298 306 304 306
193 207 230 236 179 161 184 262 112 61 91 95 88 86 84 85 85 90 92 89 91 91 96 104 115 125 139 146 152 144 139 120 99 73 30 20 357 350 339 327 315 314 309 302 294 295 298 304 306
141 176 199 240 238 171 232 250 26 70 79 92 100 103 100 97 96 104 106 106 104 106 106 107 113 114 121 123 121 115 131 86 59 57 285 288 272 264 275 278 284 292 294 299 298 297 301 305 309
151 176 231 281 219 164 260 256 51 48 88 133 129 119 113 111 112 110 111 113 113 112 110 111 109 114 119 127 122 119 115 110 104 97 96 86 74 62 49 30 12 357 340 329 325 328 333 337 339
213 188 214 222 2 194 302 264 203 51 113 130 136 133 129 123 118 113 111 108 109 109 107 106 105 104 103 101 101 103 103 100 102 95 85 70 59 52 45 36 27 17 6 358 353 346 342 340 343
218 208 174 175 131 231 86 281 236 168 149 160 156 150 140 133 127 120 115 111 105 102 101 99 99 98 100 102 105 111 106 103 87 76 70 62 52 42 34 28 21 14 11 3 359 356 352 348 344
243 146 173 143 165 120 208 215 246 138 200 198 188 167 154 145 138 130 122 116 111 109 107 107 109 110 111 113 108 104 97 89 87 80 68 59 47 33 21 13 8 2 360 357 351 346 346 344 341
148 86 54 52 89 257 210 182 240 192 191 178 189 178 167 158 149 138 130 125 120 116 113 111 113 110 106 102 96 88 84 85 79 67 50 40 29 19 10 3 356 351 346 343 341 338 335 333 331
129 122 94 327 295 234 110 167 251 195 176 174 179 183 175 167 159 149 141 135 130 125 118 111 107 105 101 95 90 84 80 73 59 44 28 14 6 1 355 351 347 344 343 339 334 329 326 324 321
193 162 163 202 204 232 68 232 255 110 156 180 181 179 175 173 168 159 152 146 139 132 122 115 112 106 101 92 82 71 58 43 29 18 5 355 345 339 334 332 330 329 328 326 324 322 322 320 317
180 198 160 109 76 37 221 277 268 133 108 173 175 180 181 179 174 168 161 157 150 144 135 129 123 113 103 89 75 62 40 23 4 350 336 329 327 328 325 322 319 317 317 316 314 313 312 310 309
174 155 114 9 153 249 263 263 235 207 192 169 177 184 187 183 180 176 171 167 162 155 150 142 132 125 124 107 77 34 4 351 347 347 342 339 336 332 327 324 322 319 318 315 313 311 309 306 304
153 180 76 132 155 175 225 254 227 204 182 186 189 186 188 188 186 181 178 175 170 163 161 154 154 159 149 98 358 340 335 335 334 333 332 332 331 325 322 321 319 318 316 312 310 308 307 305 303
165 194 170 183 205 239 168 251 263 245 186 180 183 188 193 191 189 187 185 184 180 175 173 171 172 173 191 304 313 316 317 322 323 324 325 324 321 318 316 315 314 312 311 310 308 306 304 302 300
Wind_Speed_850mb
8 6 2 3 7 8 2 2 3 3 1 1 3 3 3 3 6 4 8 3 5 16 29 34 32 31 29 27 26 23 20 15 12 9 9 8 7 5 6 9 9 8 7 6 8 10 10 9 8
7 4 4 6 8 7 5 5 4 4 1 1 4 4 3 1 1 3 7 2 5 14 25 30 29 28 28 27 25 23 20 15 12 11 8 5 3 2 8 11 12 7 7 6 7 9 10 10 7
5 4 2 8 6 7 6 6 5 3 1 1 4 2 3 2 4 4 5 3 4 11 19 26 29 27 26 24 23 22 19 16 13 9 9 4 3 2 8 10 15 11 9 8 10 11 12 12 10
7 2 10 8 5 4 3 5 4 6 1 4 3 4 1 1 3 3 6 7 5 9 15 25 27 27 26 24 21 19 18 16 13 8 6 7 8 10 10 23 21 16 12 9 9 11 12 12 10
4 6 8 7 3 3 6 6 5 2 2 4 3 1 2 5 2 3 7 10 9 7 10 20 26 25 23 27 23 20 19 17 13 9 9 10 10 10 10 18 19 17 13 8 10 12 12 11 10
6 6 8 4 5 5 7 4 2 0 2 1 3 5 6 9 10 4 4 6 7 7 7 12 22 26 25 23 26 24 22 19 15 11 10 12 13 9 11 16 17 19 12 9 10 10 10 9 7
10 7 9 8 4 6 5 4 6 3 4 3 3 4 4 12 7 4 3 4 6 4 6 9 14 22 28 28 25 26 24 21 17 16 16 17 16 13 13 15 14 20 13 11 12 11 10 9 6
6 11 6 5 5 5 1 3 4 2 1 6 5 5 2 15 18 11 9 9 9 7 8 10 13 18 25 30 28 25 26 24 21 20 19 21 18 17 15 12 13 16 18 15 12 10 11 9 6
4 8 3 7 11 4 3 8 3 6 6 3 5 9 14 18 9 8 10 9 11 10 9 11 13 17 21 28 30 29 25 26 25 20 19 22 21 19 18 12 13 15 17 18 17 13 10 9 7
7 7 11 9 8 5 3 2 9 3 9 4 2 16 16 18 10 8 13 13 15 17 19 17 19 20 20 24 27 28 28 29 31 29 27 24 22 19 16 15 15 16 18 20 19 17 12 11 12
5 8 7 5 11 7 2 7 3 3 2 6 11 24 6 3 5 7 10 13 18 22 25 28 28 25 25 21 22 28 30 28 29 28 27 24 21 19 18 19 21 22 21 22 24 23 20 15 14
1 5 7 3 5 2 5 5 6 10 1 6 17 5 8 7 6 5 4 5 9 14 18 29 34 33 28 22 19 17 22 25 28 27 25 23 24 23 19 22 23 23 25 28 29 27 23 20 19
4 4 7 11 17 19 17 16 9 14 7 11 14 9 9 10 10 9 12 15 19 21 24 27 32 37 30 23 18 11 9 15 19 20 19 20 21 24 21 23 22 23 25 24 27 32 25 23 21
5 7 19 19 22 15 10 1 8 8 13 13 7 10 10 12 14 12 9 12 16 20 24 23 29 38 33 25 18 11 8 10 11 19 25 23 20 17 16 15 18 24 26 26 28 27 23 20 21
1 8 14 10 7 8 12 4 6 9 11 10 9 8 8 11 12 15 19 19 17 14 12 9 21 35 33 26 23 18 17 15 12 12 17 24 21 20 19 20 18 17 13 22 33 28 26 27 27
3 8 6 4 7 2 7 8 6 6 4 11 10 8 7 8 12 14 17 17 17 16 11 11 23 35 38 35 29 22 16 13 9 11 14 15 15 22 24 21 16 8 13 20 29 29 30 33 39
9 7 8 15 4 5 5 10 9 14 10 16 13 12 11 12 13 17 20 21 22 23 23 24 30 35 37 34 28 24 18 15 10 4 7 9 5 3 8 5 6 12 18 21 28 35 33 39 40
13 9 8 10 3 5 6 16 11 20 19 20 18 17 16 17 20 21 23 25 29 32 35 39 40 42 36 32 28 22 16 16 12 6 6 8 10 11 12 17 20 24 34 38 38 34 37 39 40
11 9 11 7 4 4 12 11 6 14 21 18 18 21 24 25 26 25 27 29 34 39 44 49 46 43 35 32 26 19 8 12 6 5 3 8 14 19 22 24 24 20 17 17 20 24 29 30 34
6 8 11 8 7 8 9 15 5 10 7 12 21 26 32 36 37 39 41 42 43 44 45 43 43 37 32 26 26 26 29 30 27 24 19 17 13 10 7 6 8 9 11 14 20 25 27 30 34
10 11 10 14 3 3 2 10 7 6 15 20 24 31 37 44 49 53 57 60 60 61 59 57 55 52 50 45 41 37 34 34 29 27 24 24 22 21 20 19 19 20 21 23 26 27 30 33 31
10 16 12 10 7 8 0 9 8 8 7 8 24 33 39 44 49 52 56 58 57 57 54 51 48 45 43 38 33 30 30 27 29 26 24 22 21 22 22 22 22 22 23 23 27 29 29 30 34
9 10 13 6 6 4 5 2 9 12 12 14 29 36 40 44 47 52 54 54 52 49 45 42 40 40 38 33 29 26 27 31 29 25 20 20 20 20 22 23 25 25 27 28 29 30 31 32 32
18 13 12 8 5 5 16 15 8 13 14 20 30 45 47 48 47 48 49 48 47 43 39 36 33 38 34 30 31 29 30 29 22 22 21 23 23 23 24 26 29 31 31 32 34 35 34 33 32
5 12 2 3 2 11 3 7 14 11 13 35 52 65 60 52 50 48 46 43 41 38 33 31 29 33 30 27 27 26 25 22 21 21 23 25 29 32 35 36 36 38 38 37 37 38 39 39 39
17 14 11 14 8 5 2 12 11 6 10 33 60 73 66 60 53 48 43 40 38 32 30 26 25 27 26 23 24 23 22 23 24 27 30 32 35 36 37 40 41 42 43 43 45 45 46 46 45
13 11 10 13 4 5 8 9 4 5 4 27 48 61 67 61 55 50 45 39 35 31 29 25 24 23 21 19 18 17 16 16 18 19 20 22 23 27 31 35 39 43 48 52 55 57 59 61 61
9 16 5 2 5 8 8 9 12 14 19 19 37 59 73 68 61 54 47 41 38 34 30 27 22 18 14 11 8 9 11 16 22 26 31 35 39 42 46 50 53 54 55 58 63 65 68 72 74
6 7 4 8 9 11 3 11 9 17 29 38 48 62 79 75 64 56 48 41 37 36 31 27 22 16 9 3 6 11 17 21 27 33 37 42 45 50 54 59 62 65 67 70 74 77 82 86 89
2 13 13 9 10 5 4 16 4 9 26 46 54 71 84 80 70 60 50 45 42 39 35 28 21 14 6 4 11 17 21 25 31 35 40 46 50 53 59 63 67 72 76 81 86 91 93 97 100
Wind_Direction_850mb
338 345 11 105 62 65 37 245 288 263 329 180 135 147 174 132 156 176 360 122 79 161 176 179 180 177 179 181 183 187 188 192 193 181 158 145 128 106 355 338 335 336 3 43 32 36 22 26 26
13 39 91 101 83 68 284 263 231 234 327 81 134 127 70 334 57 13 27 76 73 151 176 182 185 180 182 185 188 188 194 204 202 186 179 168 133 353 318 315 320 356 22 36 23 19 0 6 5
33 50 90 89 105 148 180 232 262 297 159 103 132 119 121 101 56 59 18 116 86 149 170 186 188 188 185 190 196 197 200 200 200 185 185 173 144 85 348 334 357 14 17 12 9 360 353 350 342
17 82 63 79 120 195 180 308 251 337 87 55 69 95 326 141 104 70 64 102 99 148 163 188 195 196 195 187 194 195 200 205 207 208 214 232 199 305 345 356 351 347 356 357 3 356 352 350 341
21 65 59 77 275 257 254 285 333 9 339 6 37 317 46 25 37 103 99 109 110 135 165 184 198 205 205 191 198 204 207 212 214 224 241 245 268 293 332 347 360 349 356 359 359 354 353 353 357
66 67 67 166 255 276 270 314 193 92 20 330 58 2 73 57 65 84 112 115 110 131 170 184 196 207 211 207 195 209 211 215 218 227 234 250 267 267 322 342 354 0 355 4 360 0 356 350 5
104 78 171 164 238 299 187 348 167 168 324 76 12 29 84 67 35 338 247 204 180 169 183 194 205 210 213 218 211 205 217 220 228 241 245 252 262 263 312 329 345 6 13 9 4 1 354 347 354
90 94 117 226 195 239 210 107 139 49 47 348 24 59 339 324 328 293 243 244 236 209 203 203 213 220 221 222 217 215 212 226 225 238 247 263 260 264 295 314 334 353 6 2 5 359 350 338 336
91 64 167 213 165 219 12 37 134 317 283 10 52 15 329 314 300 227 210 245 249 244 245 242 233 229 228 225 226 217 216 218 226 229 238 253 263 274 282 291 317 336 351 357 356 351 335 321 309
88 108 217 192 201 201 324 341 335 291 330 312 197 334 293 274 251 227 232 245 235 230 231 237 246 244 235 231 231 228 223 221 226 230 236 249 267 274 280 291 304 322 334 343 348 351 331 314 302
134 178 199 211 223 251 230 293 259 296 309 159 323 321 317 318 243 244 254 257 248 241 237 240 236 235 238 235 231 226 231 234 233 231 241 252 259 269 275 284 298 308 327 338 336 334 332 317 301
338 251 227 248 160 232 227 257 270 252 207 272 308 85 98 85 67 47 12 311 284 267 251 240 235 226 225 230 226 229 230 230 235 237 242 251 263 276 288 291 293 304 311 319 326 327 324 316 308
166 273 261 270 278 276 264 250 253 326 58 144 128 106 70 51 33 6 341 324 312 299 281 257 235 219 210 214 212 217 229 229 233 229 234 252 260 265 285 285 297 302 303 309 316 315 317 311 306
187 267 281 285 269 257 234 174 159 117 118 127 109 59 28 8 7 3 342 332 320 306 294 269 232 207 193 196 191 182 163 170 198 215 225 235 255 268 269 299 290 288 293 300 305 314 309 307 302
261 317 319 256 259 230 191 137 120 125 139 98 72 54 26 10 358 355 358 354 350 340 316 280 200 186 176 178 184 175 153 152 171 200 219 220 229 246 254 268 263 279 288 297 304 314 322 319 306
62 51 354 281 155 235 172 248 188 55 230 87 72 59 32 20 25 30 28 29 34 33 46 100 153 163 164 170 170 168 163 172 176 193 209 236 258 237 234 247 235 246 282 298 305 300 303 308 310
3 230 207 313 198 128 178 259 119 46 117 93 79 76 76 74 69 66 65 64 67 66 77 102 129 141 149 156 163 160 155 171 152 145 104 119 176 343 344 274 312 304 308 314 311 298 306 304 306
193 207 230 236 179 161 184 262 112 61 91 95 88 86 84 85 85 90 92 89 91 91 96 104 115 125 139 146 152 144 139 120 99 73 30 20 357 350 339 327 315 314 309 302 294 295 298 304 306
141 176 199 240 238 171 232 250 26 70 79 92 100 103 100 97 96 104 106 106 104 106 106 107 113 114 121 123 121 115 131 86 59 57 285 288 272 264 275 278 284 292 294 299 298 297 301 305 309
151 176 231 281 219 164 260 256 51 48 88 133 129 119 113 111 112 110 111 113 113 112 110 111 109 114 119 127 122 119 115 110 104 97 96 86 74 62 49 30 12 357 340 329 325 328 333 337 339
213 188 214 222 2 194 302 264 203 51 113 130 136 133 129 123 118 113 111 108 109 109 107 106 105 104 103 101 101 103 103 100 102 95 85 70 59 52 45 36 27 17 6 358 353 346 342 340 343
218 208 174 175 131 231 86 281 236 168 149 160 156 150 140 133 127 120 115 111 105 102 101 99 99 98 100 102 105 111 106 103 87 76 70 62 52 42 34 28 21 14 11 3 359 356 352 348 344
243 146 173 143 165 120 208 215 246 138 200 198 188 167 154 145 138 130 122 116 111 109 107 107 109 110 111 113 108 104 97 89 87 80 68 59 47 33 21 13 8 2 360 357 351 346 346 344 341
148 86 54 52 89 257 210 182 240 192 191 178 189 178 167 158 149 138 130 125 120 116 113 111 113 110 106 102 96 88 84 85 79 67 50 40 29 19 10 3 356 351 346 343 341 338 335 333 331
129 122 94 327 295 234 110 167 251 195 176 174 179 183 175 167 159 149 141 135 130 125 118 111 107 105 101 95 90 84 80 73 59 44 28 14 6 1 355 351 347 344 343 339 334 329 326 324 321
193 162 163 202 204 232 68 232 255 110 156 180 181 179 175 173 168 159 152 146 139 132 122 115 112 106 101 92 82 71 58 43 29 18 5 355 345 339 334 332 330 329 328 326 324 322 322 320 317
180 198 160 109 76 37 221 277 268 133 108 173 175 180 181 179 174 168 161 157 150 144 135 129 123 113 103 89 75 62 40 23 4 350 336 329 327 328 325 322 319 317 317 316 314 313 312 310 309
174 155 114 9 153 249 263 263 235 207 192 169 177 184 187 183 180 176 171 167 162 155 150 142 132 125 124 107 77 34 4 351 347 347 342 339 336 332 327 324 322 319 318 315 313 311 309 306 304
153 180 76 132 155 175 225 254 227 204 182 186 189 186 188 188 186 181 178 175 170 163 161 154 154 159 149 98 358 340 335 335 334 333 332 332 331 325 322 321 319 318 316 312 310 308 307 305 303
165 194 170 183 205 239 168 251 263 245 186 180 183 188 193 191 189 187 185 184 180 175 173 171 172 173 191 304 313 316 317 322 323 324 325 324 321 318 316 315 314 312 311 310 308 306 304 302 300